Location: Poprad
(49.0500°N, 20.3000°E)
Time: 09:17:25
(UTC+02:00)

EO-79 - Visible Passes

Search period start: 30 April 2025 00:00
Search period end: 10 May 2025 00:00
Orbit: 530 x 544 km, 98.1° (Epoch: 29 April)

Date Brightness Start Highest point End Pass type
(mag) Time Alt. Az. Time Alt. Az. Time Alt. Az.
30 Apr ? 03:57:14 10° ENE 03:58:22 11° E 03:59:31 10° ESE visible
07 May ? 04:30:55 10° NE 04:34:06 24° E 04:37:15 10° SSE visible
08 May ? 04:22:38 10° NE 04:25:30 20° E 04:28:22 10° SE visible
09 May ? 04:14:26 10° NE 04:16:54 16° E 04:19:20 10° SE visible
